TAV61T LKPR-EKCH

Flight info

Callsign TAV61T
Flight time 0h 59m
Altitude 36000
Route VENOX DCT DEKOV Y621 GARKI DCT POGAB DCT BAKDO DCT KOSEB T298 MONAK
Aircraft A21N/M-SDE2E3FGHIJ1RWXY/LB1

Departure

Time 2026-05-06 20:04
Airport Václav Havel Airport Prague (LKPR)

Arrival

Time 2026-05-06 21:03
Airport Copenhagen Kastrup Airport (EKCH)
Time Latitude Longitude Altitude Speed Heading
2026-05-06 19:15 50.10806 14.26134 1183 ft 0 kts 123°
2026-05-06 19:50 50.10799 14.26150 1183 ft 5 kts 125°
2026-05-06 19:50 50.10759 14.26192 1182 ft 9 kts 188°
2026-05-06 19:51 50.10702 14.26144 1182 ft 10 kts 212°
2026-05-06 19:51 50.10641 14.26082 1182 ft 11 kts 213°
2026-05-06 19:51 50.10573 14.26015 1184 ft 12 kts 212°
2026-05-06 19:51 50.10539 14.25898 1188 ft 14 kts 292°
2026-05-06 19:52 50.10583 14.25791 1188 ft 7 kts 301°
2026-05-06 19:52 50.10611 14.25715 1187 ft 9 kts 299°
2026-05-06 19:52 50.10628 14.25668 1185 ft 0 kts 299°
2026-05-06 19:53 50.10635 14.25647 1185 ft 4 kts 298°
2026-05-06 19:54 50.10643 14.25600 1184 ft 6 kts 266°
2026-05-06 19:54 50.10617 14.25532 1184 ft 8 kts 236°
2026-05-06 19:54 50.10594 14.25437 1182 ft 10 kts 258°
2026-05-06 19:54 50.10582 14.25346 1176 ft 0 kts 258°
2026-05-06 19:58 50.10582 14.25345 1181 ft 0 kts 258°
2026-05-06 20:01 50.10582 14.25343 1181 ft 1 kts 258°
2026-05-06 20:01 50.10577 14.25305 1178 ft 6 kts 259°
2026-05-06 20:01 50.10573 14.25273 1179 ft 0 kts 258°
2026-05-06 20:02 50.10568 14.25239 1176 ft 12 kts 258°
2026-05-06 20:02 50.10535 14.25135 1179 ft 10 kts 191°
2026-05-06 20:02 50.10491 14.25177 1180 ft 0 kts 128°
2026-05-06 20:03 50.10483 14.25192 1178 ft 13 kts 128°
2026-05-06 20:03 50.10273 14.25626 1192 ft 85 kts 126°
2026-05-06 20:03 50.09796 14.26618 1220 ft 138 kts 126°
2026-05-06 20:04 50.09194 14.27852 1556 ft 144 kts 126°
2026-05-06 20:04 50.08573 14.29132 1941 ft 149 kts 126°
2026-05-06 20:04 50.07950 14.30414 2418 ft 151 kts 126°
2026-05-06 20:04 50.07319 14.31725 2860 ft 155 kts 126°
2026-05-06 20:05 50.06668 14.33075 3313 ft 157 kts 126°
2026-05-06 20:05 50.06005 14.34441 3818 ft 159 kts 128°
2026-05-06 20:05 50.05335 14.35816 4231 ft 163 kts 129°
2026-05-06 20:05 50.04606 14.37332 4517 ft 187 kts 128°
2026-05-06 20:06 50.03775 14.39044 4932 ft 209 kts 129°
2026-05-06 20:06 50.02863 14.40914 5513 ft 226 kts 130°
2026-05-06 20:06 50.01871 14.42963 5991 ft 246 kts 130°
2026-05-06 20:06 50.00847 14.45220 6428 ft 269 kts 122°
2026-05-06 20:07 50.00294 14.48087 7066 ft 285 kts 95°
2026-05-06 20:07 50.00632 14.51190 7889 ft 294 kts 68°
2026-05-06 20:07 50.01819 14.53731 8702 ft 299 kts 41°
2026-05-06 20:07 50.03493 14.55691 9558 ft 303 kts 34°
2026-05-06 20:08 50.05278 14.57608 10167 ft 315 kts 34°
2026-05-06 20:08 50.07102 14.59609 10535 ft 336 kts 35°
2026-05-06 20:08 50.09048 14.61787 10953 ft 351 kts 34°
2026-05-06 20:08 50.11245 14.63609 11644 ft 356 kts 18°
2026-05-06 20:09 50.13644 14.64242 12407 ft 357 kts 357°
2026-05-06 20:09 50.16071 14.63572 13171 ft 356 kts 339°
2026-05-06 20:09 50.18315 14.61960 13905 ft 356 kts 324°
2026-05-06 20:09 50.20293 14.59609 14648 ft 358 kts 317°
2026-05-06 20:10 50.22206 14.57099 15300 ft 362 kts 316°
2026-05-06 20:10 50.24143 14.54538 15645 ft 366 kts 316°
2026-05-06 20:10 50.26089 14.51965 15806 ft 366 kts 316°
2026-05-06 20:10 50.28172 14.49652 16348 ft 373 kts 330°
2026-05-06 20:11 50.30680 14.48253 17003 ft 381 kts 341°
2026-05-06 20:11 50.33218 14.47176 17667 ft 385 kts 342°
2026-05-06 20:11 50.35826 14.46082 18296 ft 390 kts 341°
2026-05-06 20:11 50.38460 14.44966 18891 ft 393 kts 341°
2026-05-06 20:12 50.41108 14.43846 19504 ft 395 kts 342°
2026-05-06 20:12 50.43770 14.42728 20095 ft 398 kts 342°
2026-05-06 20:12 50.46445 14.41605 20659 ft 401 kts 342°
2026-05-06 20:12 50.49157 14.40464 21195 ft 404 kts 341°
2026-05-06 20:13 50.51888 14.39309 21709 ft 408 kts 341°
2026-05-06 20:13 50.54639 14.38144 22220 ft 411 kts 341°
2026-05-06 20:13 50.57419 14.36960 22726 ft 415 kts 341°
2026-05-06 20:13 50.60216 14.35771 23225 ft 418 kts 341°
2026-05-06 20:14 50.63033 14.34579 23648 ft 421 kts 341°
2026-05-06 20:14 50.65878 14.33385 24054 ft 425 kts 341°
2026-05-06 20:14 50.68731 14.32178 24454 ft 427 kts 341°
2026-05-06 20:14 50.71610 14.30954 24911 ft 430 kts 341°
2026-05-06 20:15 50.74503 14.29712 25354 ft 432 kts 341°
2026-05-06 20:15 50.77414 14.28464 25781 ft 435 kts 341°
2026-05-06 20:15 50.80343 14.27209 26197 ft 438 kts 341°
2026-05-06 20:15 50.83294 14.25940 26591 ft 440 kts 341°
2026-05-06 20:16 50.86259 14.24667 27016 ft 444 kts 341°
2026-05-06 20:16 50.89242 14.23387 27462 ft 446 kts 341°
2026-05-06 20:16 50.92260 14.22091 27806 ft 451 kts 340°
2026-05-06 20:16 50.95295 14.20783 28182 ft 455 kts 340°
2026-05-06 20:17 50.98358 14.19461 28564 ft 458 kts 340°
2026-05-06 20:17 51.01438 14.18127 28942 ft 460 kts 340°
2026-05-06 20:17 51.04528 14.16788 29309 ft 462 kts 341°
2026-05-06 20:17 51.07640 14.15430 29655 ft 464 kts 340°
2026-05-06 20:18 51.10772 14.14067 29990 ft 469 kts 340°
2026-05-06 20:18 51.13924 14.12694 30355 ft 471 kts 340°
2026-05-06 20:18 51.17090 14.11301 30686 ft 472 kts 340°
2026-05-06 20:18 51.20262 14.09900 31000 ft 474 kts 340°
2026-05-06 20:19 51.23443 14.08505 31316 ft 475 kts 340°
2026-05-06 20:19 51.26613 14.07121 31685 ft 474 kts 340°
2026-05-06 20:19 51.29792 14.05723 32089 ft 473 kts 340°
2026-05-06 20:19 51.32967 14.04334 32450 ft 471 kts 340°
2026-05-06 20:20 51.36126 14.02950 32798 ft 470 kts 339°
2026-05-06 20:20 51.39275 14.01558 33122 ft 469 kts 339°
2026-05-06 20:20 51.42417 14.00172 33466 ft 468 kts 339°
2026-05-06 20:20 51.45562 13.98787 33811 ft 468 kts 339°
2026-05-06 20:21 51.48704 13.97417 34061 ft 467 kts 339°
2026-05-06 20:21 51.51831 13.96045 34306 ft 467 kts 339°
2026-05-06 20:21 51.54970 13.94656 34548 ft 467 kts 339°
2026-05-06 20:21 51.58104 13.93263 34769 ft 467 kts 339°
2026-05-06 20:22 51.61231 13.91864 34988 ft 466 kts 339°
2026-05-06 20:22 51.64356 13.90455 35207 ft 466 kts 339°
2026-05-06 20:22 51.67484 13.89068 35417 ft 466 kts 339°
2026-05-06 20:22 51.70608 13.87683 35638 ft 466 kts 339°
2026-05-06 20:23 51.73730 13.86285 35808 ft 466 kts 339°
2026-05-06 20:23 51.76854 13.84893 35831 ft 465 kts 339°
2026-05-06 20:23 51.82038 13.82581 35811 ft 465 kts 339°
2026-05-06 20:24 51.88260 13.79765 35807 ft 464 kts 339°
2026-05-06 20:24 51.94490 13.76964 35825 ft 464 kts 340°
2026-05-06 20:25 52.00724 13.74190 35826 ft 465 kts 340°
2026-05-06 20:25 52.06966 13.71376 35823 ft 465 kts 340°
2026-05-06 20:26 52.13199 13.68543 35830 ft 465 kts 340°
2026-05-06 20:26 52.19441 13.65699 35839 ft 465 kts 340°
2026-05-06 20:27 52.25671 13.62843 35848 ft 466 kts 340°
2026-05-06 20:27 52.31926 13.59980 35855 ft 466 kts 340°
2026-05-06 20:28 52.38145 13.57128 35847 ft 460 kts 340°
2026-05-06 20:28 52.44275 13.54302 35844 ft 457 kts 339°
2026-05-06 20:29 52.50395 13.51469 35849 ft 456 kts 340°
2026-05-06 20:29 52.56508 13.48633 35842 ft 456 kts 340°
2026-05-06 20:30 52.65626 13.44383 35853 ft 456 kts 340°
2026-05-06 20:31 52.71738 13.41530 35856 ft 456 kts 340°
2026-05-06 20:31 52.77833 13.38619 35860 ft 456 kts 339°
2026-05-06 20:32 52.83942 13.35742 35868 ft 456 kts 340°
2026-05-06 20:32 52.90052 13.32874 35865 ft 456 kts 340°
2026-05-06 20:33 52.96159 13.29990 35870 ft 456 kts 340°
2026-05-06 20:33 53.02259 13.27094 35895 ft 454 kts 340°
2026-05-06 20:34 53.08333 13.24195 35878 ft 454 kts 340°
2026-05-06 20:34 53.14402 13.21287 35878 ft 454 kts 340°
2026-05-06 20:35 53.20478 13.18384 35882 ft 454 kts 340°
2026-05-06 20:35 53.26566 13.15526 35886 ft 454 kts 340°
2026-05-06 20:36 53.32635 13.12616 35892 ft 454 kts 340°
2026-05-06 20:36 53.38706 13.09689 35892 ft 454 kts 340°
2026-05-06 20:37 53.44772 13.06755 35893 ft 454 kts 340°
2026-05-06 20:37 53.50830 13.03792 35893 ft 454 kts 340°
2026-05-06 20:38 53.56896 13.00834 35910 ft 454 kts 340°
2026-05-06 20:38 53.62969 12.97874 35899 ft 454 kts 340°
2026-05-06 20:39 53.69040 12.94900 35904 ft 454 kts 340°
2026-05-06 20:39 53.75112 12.91931 35910 ft 454 kts 340°
2026-05-06 20:40 53.81136 12.88964 35913 ft 454 kts 340°
2026-05-06 20:40 53.87206 12.85965 35908 ft 454 kts 340°
2026-05-06 20:41 53.93261 12.82967 35675 ft 451 kts 340°
2026-05-06 20:41 53.96282 12.81464 35369 ft 453 kts 340°
2026-05-06 20:41 53.99309 12.79956 35111 ft 454 kts 340°
2026-05-06 20:41 54.02339 12.78447 34868 ft 454 kts 340°
2026-05-06 20:42 54.05368 12.76937 34624 ft 454 kts 340°
2026-05-06 20:42 54.08406 12.75418 34364 ft 453 kts 340°
2026-05-06 20:42 54.11419 12.73910 33853 ft 450 kts 340°
2026-05-06 20:42 54.14420 12.72407 33208 ft 449 kts 340°
2026-05-06 20:43 54.17409 12.70904 32583 ft 446 kts 341°
2026-05-06 20:43 54.20374 12.69414 32013 ft 443 kts 341°
2026-05-06 20:43 54.23326 12.67930 31410 ft 441 kts 341°
2026-05-06 20:43 54.26260 12.66448 30844 ft 438 kts 342°
2026-05-06 20:44 54.29171 12.64973 30284 ft 435 kts 342°
2026-05-06 20:44 54.32064 12.63511 29689 ft 432 kts 342°
2026-05-06 20:44 54.34933 12.62057 29063 ft 429 kts 342°
2026-05-06 20:44 54.37784 12.60613 28446 ft 425 kts 342°
2026-05-06 20:45 54.40593 12.59161 27927 ft 419 kts 341°
2026-05-06 20:45 54.43368 12.57716 27395 ft 415 kts 342°
2026-05-06 20:45 54.46122 12.56295 26832 ft 412 kts 342°
2026-05-06 20:45 54.48856 12.54895 26281 ft 409 kts 341°
2026-05-06 20:46 54.51585 12.53524 25739 ft 407 kts 341°
2026-05-06 20:46 54.54289 12.52157 25208 ft 403 kts 341°
2026-05-06 20:46 54.56963 12.50788 24698 ft 400 kts 341°
2026-05-06 20:46 54.59612 12.49413 24168 ft 397 kts 341°
2026-05-06 20:47 54.62248 12.48050 23645 ft 394 kts 341°
2026-05-06 20:47 54.64852 12.46708 23072 ft 388 kts 341°
2026-05-06 20:47 54.67423 12.45383 22514 ft 381 kts 340°
2026-05-06 20:47 54.69944 12.44087 21960 ft 375 kts 341°
2026-05-06 20:48 54.72424 12.42798 21429 ft 369 kts 340°
2026-05-06 20:48 54.74862 12.41539 20925 ft 363 kts 341°
2026-05-06 20:48 54.77281 12.40423 20285 ft 360 kts 348°
2026-05-06 20:48 54.79799 12.40488 19409 ft 369 kts
2026-05-06 20:49 54.82277 12.41754 18741 ft 369 kts 17°
2026-05-06 20:49 54.84678 12.43209 18239 ft 362 kts 17°
2026-05-06 20:49 54.87029 12.44610 17745 ft 353 kts 17°
2026-05-06 20:49 54.89335 12.45937 17344 ft 347 kts 16°
2026-05-06 20:50 54.91589 12.47213 16952 ft 344 kts 16°
2026-05-06 20:50 54.93887 12.48505 16562 ft 342 kts 16°
2026-05-06 20:50 54.96121 12.49753 16173 ft 341 kts 16°
2026-05-06 20:50 54.98409 12.51032 15790 ft 341 kts 16°
2026-05-06 20:51 55.00629 12.52274 15432 ft 339 kts 16°
2026-05-06 20:51 55.02872 12.53534 15071 ft 338 kts 16°
2026-05-06 20:51 55.05113 12.54796 14690 ft 338 kts 16°
2026-05-06 20:51 55.07352 12.56056 14283 ft 339 kts 16°
2026-05-06 20:52 55.09597 12.57307 13885 ft 339 kts 16°
2026-05-06 20:52 55.11840 12.58552 13469 ft 338 kts 16°
2026-05-06 20:52 55.14074 12.59799 13068 ft 334 kts 17°
2026-05-06 20:52 55.16264 12.61030 12668 ft 327 kts 17°
2026-05-06 20:53 55.18405 12.62237 12263 ft 320 kts 17°
2026-05-06 20:53 55.20502 12.63423 11865 ft 313 kts 17°
2026-05-06 20:53 55.22563 12.64591 11474 ft 311 kts 17°
2026-05-06 20:53 55.24613 12.65757 11152 ft 305 kts 17°
2026-05-06 20:54 55.26595 12.66883 10917 ft 294 kts 17°
2026-05-06 20:54 55.28521 12.67977 10561 ft 288 kts 17°
2026-05-06 20:54 55.30411 12.69054 10197 ft 284 kts 17°
2026-05-06 20:54 55.32283 12.70119 9723 ft 283 kts 18°
2026-05-06 20:55 55.34150 12.71184 9225 ft 282 kts 18°
2026-05-06 20:55 55.36005 12.72241 8797 ft 279 kts 18°
2026-05-06 20:55 55.37843 12.73277 8381 ft 275 kts 18°
2026-05-06 20:55 55.39655 12.74286 7971 ft 272 kts 18°
2026-05-06 20:56 55.41454 12.75275 7561 ft 269 kts 18°
2026-05-06 20:56 55.43225 12.76238 7146 ft 266 kts 18°
2026-05-06 20:56 55.44991 12.77194 6726 ft 264 kts 18°
2026-05-06 20:56 55.46737 12.78134 6329 ft 262 kts 18°
2026-05-06 20:57 55.48477 12.79063 5891 ft 260 kts 18°
2026-05-06 20:57 55.50202 12.79975 5448 ft 259 kts 18°
2026-05-06 20:57 55.51930 12.80878 5023 ft 258 kts 18°
2026-05-06 20:57 55.53646 12.81766 4579 ft 257 kts 18°
2026-05-06 20:58 55.55360 12.82640 4167 ft 256 kts 18°
2026-05-06 20:58 55.57060 12.83493 3818 ft 251 kts 18°
2026-05-06 20:58 55.58708 12.84303 3650 ft 240 kts 18°
2026-05-06 20:58 55.60257 12.85049 3479 ft 228 kts 18°
2026-05-06 20:59 55.61750 12.85758 3284 ft 217 kts 18°
2026-05-06 20:59 55.63218 12.86257 2872 ft 214 kts
2026-05-06 20:59 55.64646 12.85827 2533 ft 207 kts 335°
2026-05-06 20:59 55.65806 12.84395 2139 ft 202 kts 322°
2026-05-06 21:00 55.66876 12.82876 1865 ft 188 kts 320°
2026-05-06 21:00 55.67684 12.81201 1766 ft 175 kts 297°
2026-05-06 21:00 55.67958 12.79134 1606 ft 169 kts 266°
2026-05-06 21:00 55.67726 12.77219 1486 ft 152 kts 250°
2026-05-06 21:01 55.67348 12.75475 1333 ft 151 kts 244°
2026-05-06 21:01 55.66862 12.73836 1141 ft 150 kts 233°
2026-05-06 21:01 55.66197 12.72435 943 ft 147 kts 223°
2026-05-06 21:01 55.65442 12.71233 810 ft 145 kts 218°
2026-05-06 21:02 55.64666 12.70083 682 ft 145 kts 217°
2026-05-06 21:02 55.63914 12.68907 452 ft 144 kts 220°
2026-05-06 21:02 55.63164 12.67741 233 ft 142 kts 220°
2026-05-06 21:02 55.62430 12.66583 50 ft 141 kts 219°
2026-05-06 21:03 55.61725 12.65509 23 ft 120 kts 220°
2026-05-06 21:03 55.61354 12.64918 24 ft 37 kts 229°
2026-05-06 21:03 55.61235 12.64522 25 ft 26 kts 259°
2026-05-06 21:03 55.61201 12.64342 23 ft 15 kts 249°
2026-05-06 21:04 55.61192 12.64157 22 ft 17 kts 306°
2026-05-06 21:04 55.61303 12.64140 24 ft 19 kts 34°
2026-05-06 21:04 55.61413 12.64268 22 ft 19 kts 32°
2026-05-06 21:04 55.61528 12.64399 24 ft 21 kts 33°
2026-05-06 21:05 55.61615 12.64499 25 ft 9 kts 32°
2026-05-06 21:05 55.61671 12.64562 23 ft 8 kts 32°
2026-05-06 21:05 55.61687 12.64577 22 ft 0 kts 18°
2026-05-06 21:06 55.61688 12.64577 22 ft 1 kts 16°
2026-05-06 21:06 55.61725 12.64566 22 ft 17 kts 349°
2026-05-06 21:06 55.61850 12.64523 23 ft 19 kts 349°
2026-05-06 21:06 55.61964 12.64485 22 ft 15 kts 350°
2026-05-06 21:07 55.62070 12.64451 22 ft 13 kts 349°
2026-05-06 21:07 55.62125 12.64433 22 ft 8 kts 349°
2026-05-06 21:07 55.62193 12.64413 21 ft 12 kts 348°
2026-05-06 21:07 55.62264 12.64318 21 ft 14 kts 308°
2026-05-06 21:08 55.62319 12.64172 21 ft 15 kts 303°
2026-05-06 21:08 55.62378 12.64014 21 ft 16 kts 303°
2026-05-06 21:08 55.62445 12.63848 21 ft 17 kts 321°
2026-05-06 21:08 55.62557 12.63770 23 ft 13 kts
2026-05-06 21:09 55.62569 12.63770 23 ft 0 kts
2026-05-06 21:10 55.62589 12.63775 23 ft 8 kts
2026-05-06 21:10 55.62650 12.63817 25 ft 10 kts 31°
2026-05-06 21:10 55.62692 12.63864 22 ft 11 kts 32°
2026-05-06 21:11 55.62760 12.63943 22 ft 12 kts 33°
2026-05-06 21:11 55.62815 12.64026 24 ft 11 kts 57°
2026-05-06 21:11 55.62845 12.64137 22 ft 7 kts 66°
2026-05-06 21:11 55.62855 12.64209 22 ft 7 kts 93°
2026-05-06 21:12 55.62852 12.64250 22 ft 0 kts 98°